"2016-01-16 00:00:00",1288731,6.461,132.9,6.27,1.19,2.539,98.4454,-4.66,-3.394,53.29,0,109.4,13.44,-3.92,94.9
"2016-01-16 00:00:30",1288732,6.433,130.2,6.138,1.2,2.113,98.44567,-4.66,-3.393,53.53,0,109.4,13.44,-3.92,92.2
"2016-01-16 00:01:00",1288733,6.399,130.6,6.3,1.14,2.21,98.44738,-4.655,-3.402,53.63,0,109.4,13.44,-3.92,92.6
"2016-01-16 00:01:30",1288734,6.057,126.8,6.428,1.201,2.096,98.44794,-4.654,-3.404,53.51,0,109.4,13.44,-3.92,88.8
"2016-01-16 00:02:00",1288735,6.122,126.6,6.57,1.212,2.13,98.45161,-4.645,-3.404,53.21,0,109.4,13.45,-3.91,88.6
"2016-01-16 00:02:30",1288736,6.139,126.4,6.121,1.197,2.046,98.45302,-4.641,-3.368,53.02,0,109.4,13.45,-3.91,88.4
"2016-01-16 00:03:00",1288737,5.995,125,6.255,1.231,2.15,98.4567,-4.632,-3.393,52.5,0,109.4,13.45,-3.90,87.0
"2016-01-16 00:03:30",1288738,5.79,122.6,6.717,1.29,1.745,98.45613,-4.633,-3.41,52.2,0,109.4,13.44,-3.90,84.6
"2016-01-16 00:04:00",1288739,5.661,121.3,6.679,1.279,1.54,98.46035,-4.622,-3.447,52.03,0,109.4,13.45,-3.89,83.3
"2016-01-16 00:04:30",1288740,4.911,117.1,6.12,1.219,0.041,98.46091,-4.621,-3.52,51.76,0,109.4,13.45,-3.89,79.1
"2016-01-16 00:05:00",1288741,5.14,118.3,6.61,1.343,0.777,98.45779,-4.629,-3.42,51.74,0,109.4,13.45,-3.89,80.3
"2016-01-16 00:05:30",1288742,5.467,120.1,6.959,1.331,1.206,98.45808,-4.628,-3.461,51.76,0,109.4,13.45,-3.89,82.1
"2016-01-16 00:06:00",1288743,5.486,117,6.824,1.317,1.61,98.45496,-4.636,-3.411,51.72,0,109.4,13.45,-3.90,79.0
"2016-01-16 00:06:30",1288744,5.333,117.1,6.733,1.303,2.178,98.45296,-4.641,-3.407,51.4,0,109.4,13.45,-3.91,79.1
"2016-01-16 00:07:00",1288745,5.551,118.7,5.947,1.233,2.655,98.45238,-4.643,-3.36,51.3,0,109.4,13.45,-3.91,80.7
"2016-01-16 00:07:30",1288746,5.457,116.7,6.265,1.236,2.597,98.4521,-4.643,-3.366,51.25,0,109.4,13.45,-3.91,78.7
"2016-01-16 00:08:00",1288747,5.385,114.7,5.924,1.147,2.28,98.4521,-4.643,-3.344,51.25,0,109.4,13.45,-3.91,76.7
"2016-01-16 00:08:30",1288748,5.316,114.2,6.114,1.138,2.13,98.45097,-4.646,-3.376,51.3,0,109.4,13.45,-3.91,76.2
"2016-01-16 00:09:00",1288749,4.781,111.7,6.584,1.279,1.618,98.45097,-4.646,-3.404,50.95,0,109.4,13.45,-3.91,73.7
"2016-01-16 00:09:30",1288750,3.885,110.7,6.315,1.277,0.223,98.45068,-4.647,-3.509,50.18,0,109.4,13.45,-3.91,72.7
"2016-01-16 00:10:00",1288751,2.914,105,1.048,0.037,-1.739,98.45124,-4.646,-3.624,49.8,0,109.4,13.49,-3.91,67.0
"2016-01-16 00:10:30",1288752,3.76,108.3,6.293,1.222,0.075,98.45152,-4.645,-3.453,49.57,0,109.4,13.45,-3.91,70.3
"2016-01-16 00:11:00",1288753,5.204,117.3,5.905,1.125,2.78,98.44982,-4.649,-3.37,49.41,0,109.4,13.45,-3.91,79.3
"2016-01-16 00:11:30",1288754,5.326,117.3,6.156,1.237,2.122,98.45068,-4.647,-3.378,49.79,0,109.4,13.45,-3.91,79.3
"2016-01-16 00:12:00",1288755,5.514,114.5,6.734,1.264,2.138,98.44926,-4.651,-3.37,49.74,0,109.4,13.45,-3.91,76.5
"2016-01-16 00:12:30",1288756,5.635,112.9,6.542,1.326,2.125,98.44699,-4.656,-3.41,48.96,0,109.4,13.44,-3.92,74.9
"2016-01-16 00:13:00",1288757,6.06,114.1,6.459,1.187,2.138,98.445,-4.661,-3.376,48.31,0,109.4,13.45,-3.93,76.1
"2016-01-16 00:13:30",1288758,6.014,114.6,6.154,1.182,2.304,98.44246,-4.668,-3.372,48.42,0,109.4,13.45,-3.93,76.6
"2016-01-16 00:14:00",1288759,6.08,116.1,6.082,1.174,1.843,98.44132,-4.671,-3.355,48.99,0,109.4,13.44,-3.94,78.1
"2016-01-16 00:14:30",1288760,6.249,114.1,6.515,1.134,2.15,98.4382,-4.679,-3.374,49.4,0,109.4,13.45,-3.94,76.1
"2016-01-16 00:15:00",1288761,6.245,114.4,6.096,1.233,1.858,98.43565,-4.685,-3.349,49.47,0,109.4,13.45,-3.95,76.4
"2016-01-16 00:15:30",1288762,6.543,112.5,6.212,1.131,1.938,98.43537,-4.686,-3.382,49.09,0,109.4,13.45,-3.95,74.5
"2016-01-16 00:16:00",1288763,6.397,110.3,6.134,1.235,2.023,98.43537,-4.686,-3.374,48.81,0,109.4,13.45,-3.95,72.3
"2016-01-16 00:16:30",1288764,6.529,109.3,6.544,1.27,1.687,98.43537,-4.686,-3.397,48.4,0,109.4,13.45,-3.95,71.3
"2016-01-16 00:17:00",1288765,6.473,107,6.864,1.236,1.783,98.43537,-4.686,-3.415,48.08,0,109.4,13.45,-3.95,69.0
"2016-01-16 00:17:30",1288766,6.475,108.9,6.373,1.262,1.734,98.43253,-4.693,-3.406,48.13,0,109.4,13.45,-3.96,70.9
"2016-01-16 00:18:00",1288767,6.871,109.8,6.702,1.136,2.029,98.42262,-4.718,-3.395,48.36,0,109.4,13.45,-3.98,71.8
"2016-01-16 00:18:30",1288768,6.62,110.4,6.041,1.188,2.273,98.41865,-4.729,-3.388,48.29,0,109.4,13.45,-3.99,72.4
"2016-01-16 00:19:00",1288769,6.619,109.8,6.196,1.197,1.707,98.41751,-4.731,-3.405,48.32,0,109.4,13.45,-4.00,71.8
"2016-01-16 00:19:30",1288770,6.598,109.7,5.911,1.198,2.24,98.41071,-4.749,-3.397,48.24,0,109.4,13.45,-4.01,71.7
"2016-01-16 00:20:00",1288771,6.658,109.2,5.793,1.226,2.081,98.40391,-4.766,-3.397,48.1,0,109.4,13.45,-4.03,71.2
"2016-01-16 00:20:30",1288772,6.779,108.6,6.395,1.196,2.165,98.40136,-4.773,-3.434,47.89,0,109.4,13.45,-4.04,70.6
"2016-01-16 00:21:00",1288773,6.784,109.8,6.275,1.133,2.061,98.40136,-4.773,-3.441,47.7,0,109.4,13.45,-4.04,71.8
"2016-01-16 00:21:30",1288774,6.394,113,6.507,1.249,1.981,98.40136,-4.773,-3.433,47.9,0,109.4,13.45,-4.04,75.0
"2016-01-16 00:22:00",1288775,6.439,112.7,6.018,1.234,1.503,98.39938,-4.778,-3.486,47.72,0,109.4,13.45,-4.04,74.7
"2016-01-16 00:22:30",1288776,6.318,111.7,6.821,1.242,1.666,98.39172,-4.797,-3.487,47.52,0,109.4,13.45,-4.06,73.7
"2016-01-16 00:23:00",1288777,6.302,112.9,6.087,1.271,1.954,98.38435,-4.816,-3.462,47.49,0,109.4,13.45,-4.08,74.9
"2016-01-16 00:23:30",1288778,6.327,114.2,5.912,1.185,1.952,98.38123,-4.824,-3.471,47.53,0,109.4,13.45,-4.09,76.2
"2016-01-16 00:24:00",1288779,6.283,115.8,6.091,1.223,1.785,98.37755,-4.833,-3.473,47.52,0,109.4,13.45,-4.10,77.8
"2016-01-16 00:24:30",1288780,6.272,113.9,6.531,1.192,1.446,98.37443,-4.841,-3.492,47.74,0,109.4,13.45,-4.11,75.9
"2016-01-16 00:25:00",1288781,6.252,113.9,6.294,1.211,1.971,98.36904,-4.855,-3.508,47.76,0,109.4,13.45,-4.12,75.9
"2016-01-16 00:25:30",1288782,6.239,116.5,5.919,1.175,1.853,98.36734,-4.859,-3.498,47.74,0,109.4,13.45,-4.12,78.5
"2016-01-16 00:26:00",1288783,5.968,118,6.442,1.211,1.643,98.36734,-4.859,-3.507,47.78,0,109.4,13.45,-4.12,80.0
"2016-01-16 00:26:30",1288784,5.658,115.5,6.985,1.263,1.33,98.36734,-4.859,-3.536,47.6,0,109.4,13.45,-4.12,77.5
"2016-01-16 00:27:00",1288785,5.905,117.8,6.542,1.265,1.289,98.36734,-4.859,-3.548,47.78,0,109.4,13.45,-4.12,79.8
"2016-01-16 00:27:30",1288786,6.115,122.8,5.787,1.176,1.768,98.36734,-4.859,-3.562,48.13,0,109.4,13.45,-4.12,84.8
"2016-01-16 00:28:00",1288787,5.01,115.1,6.033,1.17,-0.513,98.36734,-4.859,-3.647,48.41,0,109.4,13.45,-4.12,77.1
"2016-01-16 00:28:30",1288788,5.506,119.7,6.486,1.325,0.565,98.36734,-4.859,-3.603,48.58,0,109.4,13.45,-4.12,81.7
"2016-01-16 00:29:00",1288789,5.866,119.9,6.794,1.327,1.543,98.36762,-4.858,-3.565,48.55,0,109.4,13.45,-4.12,81.9
"2016-01-16 00:29:30",1288790,5.675,120,6.912,1.304,1.834,98.36734,-4.859,-3.578,48.54,0,109.4,13.45,-4.12,82.0
"2016-01-16 00:30:00",1288791,5.648,118.5,6.814,1.269,1.817,98.36706,-4.86,-3.556,48.67,0,109.4,13.45,-4.12,80.5
"2016-01-16 00:30:30",1288792,5.531,117,6.358,1.245,2.218,98.36252,-4.871,-3.522,48.39,0,109.4,13.45,-4.14,79.0
"2016-01-16 00:31:00",1288793,5.719,117.6,6.281,1.142,2.299,98.35996,-4.878,-3.554,47.99,0,109.4,13.45,-4.14,79.6
"2016-01-16 00:31:30",1288794,5.957,119.8,6.691,1.15,1.888,98.35544,-4.889,-3.531,48.39,0,109.4,13.45,-4.15,81.8
"2016-01-16 00:32:00",1288795,5.844,117.5,6.41,1.21,1.994,98.35315,-4.895,-3.539,48.7,0,109.4,13.46,-4.16,79.5
"2016-01-16 00:32:30",1288796,5.675,116.4,6.261,1.223,1.929,98.35117,-4.9,-3.578,48.81,0,109.4,13.46,-4.17,78.4
"2016-01-16 00:33:00",1288797,5.295,115.2,6.439,1.34,1.366,98.35116,-4.9,-3.591,49.04,0,109.4,13.46,-4.17,77.2
"2016-01-16 00:33:30",1288798,5.323,112.9,6.607,1.318,0.838,98.34976,-4.904,-3.613,49.06,0,109.4,13.46,-4.17,74.9
"2016-01-16 00:34:00",1288799,4.359,108.8,5.996,1.139,-0.652,98.35031,-4.903,-3.685,48.93,0,109.4,13.46,-4.17,70.8
"2016-01-16 00:34:30",1288800,5.191,111.2,7.071,1.304,0.855,98.35281,-4.896,-3.66,49.17,0,109.4,13.46,-4.16,73.2
"2016-01-16 00:35:00",1288801,5.132,111.8,6.882,1.343,0.989,98.35448,-4.892,-3.622,49.48,0,109.4,13.46,-4.16,73.8
"2016-01-16 00:35:30",1288802,5.626,113.2,6.562,1.249,1.891,98.3542,-4.893,-3.606,49.7,0,109.4,13.47,-4.16,75.2
"2016-01-16 00:36:00",1288803,5.318,112.2,6.741,1.287,1.864,98.35645,-4.887,-3.593,49.87,0,109.4,13.47,-4.15,74.2
"2016-01-16 00:36:30",1288804,5.512,111.4,6.487,1.217,2.5,98.35643,-4.887,-3.594,49.95,0,109.4,13.47,-4.15,73.4
"2016-01-16 00:37:00",1288805,5.635,111.9,6.067,1.187,2.295,98.35332,-4.895,-3.549,50.12,0,109.4,13.47,-4.16,73.9
"2016-01-16 00:37:30",1288806,5.692,109.9,5.794,1.196,1.803,98.35608,-4.888,-3.567,50.19,0,109.4,13.47,-4.15,71.9
"2016-01-16 00:38:00",1288807,5.741,108.1,6.365,1.197,1.886,98.35551,-4.889,-3.572,50.32,0,109.4,13.47,-4.15,70.1
"2016-01-16 00:38:30",1288808,5.752,106.9,6.48,1.234,1.571,98.35464,-4.891,-3.598,50.55,0,109.4,13.46,-4.16,68.9
"2016-01-16 00:39:00",1288809,5.806,109.1,6.024,1.226,1.848,98.35292,-4.896,-3.601,50.8,0,109.4,13.47,-4.16,71.1
"2016-01-16 00:39:30",1288810,5.745,110.1,6.441,1.261,1.868,98.34982,-4.904,-3.598,50.98,0,109.4,13.47,-4.17,72.1
"2016-01-16 00:40:00",1288811,5.803,111,6.32,1.238,1.264,98.34782,-4.909,-3.609,51.08,0,109.4,13.46,-4.17,73.0
"2016-01-16 00:40:30",1288812,4.448,106.5,5.967,1.112,-0.822,98.34755,-4.91,-3.751,51.09,0,109.4,13.47,-4.17,68.5
"2016-01-16 00:41:00",1288813,4.372,106.3,6.132,1.212,-0.584,98.34699,-4.911,-3.732,51.59,0,109.4,13.47,-4.18,68.3
"2016-01-16 00:41:30",1288814,4.941,110,7.12,1.318,0.717,98.34727,-4.91,-3.68,52.12,0,109.4,13.47,-4.18,72.0
"2016-01-16 00:42:00",1288815,4.888,110.4,6.701,1.314,1.628,98.34837,-4.907,-3.635,52.68,0,109.4,13.47,-4.17,72.4
"2016-01-16 00:42:30",1288816,4.553,109.9,6.308,1.346,1.364,98.34412,-4.918,-3.641,53.31,0,109.4,13.47,-4.18,71.9
"2016-01-16 00:43:00",1288817,4.658,111,7.311,1.211,1.831,98.33646,-4.938,-3.611,54,0,109.4,13.47,-4.20,73.0
"2016-01-16 00:43:30",1288818,3.738,106.1,8.48,1.334,0.212,98.33192,-4.949,-3.668,54.5,0,109.4,13.47,-4.21,68.1
"2016-01-16 00:44:00",1288819,4.093,106.5,6.735,1.302,0.409,98.33192,-4.949,-3.72,54.82,0,109.4,13.46,-4.21,68.5
"2016-01-16 00:44:30",1288820,2.729,98.4,3.119,0.52,-1.665,98.32938,-4.956,-3.802,55.16,0,109.3,13.5,-4.22,60.4
"2016-01-16 00:45:00",1288821,4.008,102.3,6.831,1.349,1.088,98.32483,-4.967,-3.653,55.91,0,109.4,13.46,-4.23,64.3
"2016-01-16 00:45:30",1288822,4.103,105.2,7.098,1.326,1.974,98.32226,-4.974,-3.634,56.55,0,109.4,13.46,-4.24,67.2
"2016-01-16 00:46:00",1288823,3.914,108.3,7.425,1.305,1.638,98.31631,-4.989,-3.641,57.02,0,109.4,13.46,-4.25,70.3
"2016-01-16 00:46:30",1288824,3.501,106.1,7.315,1.254,1.282,98.3166,-4.988,-3.713,57.35,0,109.4,13.46,-4.25,68.1
"2016-01-16 00:47:00",1288825,2.884,101.7,5.978,1.188,-0.231,98.31687,-4.988,-3.724,57.64,0,109.4,13.46,-4.25,63.7
"2016-01-16 00:47:30",1288826,1.902,97.3,4.292,0.12,-2.099,98.31687,-4.988,-3.91,57.91,0,109.4,13.5,-4.25,59.3
"2016-01-16 00:48:00",1288827,3.204,101.2,8.63,1.307,1.11,98.31771,-4.986,-3.735,58.56,0,109.4,13.47,-4.25,63.2
"2016-01-16 00:48:30",1288828,3.59,105.2,6.938,1.297,1.635,98.30978,-5.006,-3.68,58.92,0,109.3,13.47,-4.27,67.2
"2016-01-16 00:49:00",1288829,3.651,106.3,6.36,1.239,2.038,98.30044,-5.03,-3.676,59.11,0,109.4,13.47,-4.30,68.3
"2016-01-16 00:49:30",1288830,3.175,101.3,8.77,1.278,0.999,98.29872,-5.034,-3.788,59.23,0,109.4,13.47,-4.30,63.3
"2016-01-16 00:50:00",1288831,2.562,99.7,9.63,1.24,-0.67,98.29053,-5.055,-3.856,59.17,0,109.3,13.47,-4.32,61.7
"2016-01-16 00:50:30",1288832,1.804,99.5,3.552,0.506,-1.931,98.28483,-5.069,-3.932,58.96,0,109.3,13.48,-4.34,61.5
"2016-01-16 00:51:00",1288833,3.223,104.6,7.455,1.293,0.656,98.28341,-5.073,-3.768,59.17,0,109.3,13.48,-4.34,66.6
"2016-01-16 00:51:30",1288834,3.177,110.7,8.06,1.342,1.646,98.28285,-5.074,-3.738,59.38,0,109.4,13.48,-4.34,72.7
"2016-01-16 00:52:00",1288835,3.283,111.6,7.184,1.328,1.537,98.28313,-5.074,-3.727,59.66,0,109.4,13.48,-4.34,73.6
"2016-01-16 00:52:30",1288836,3.17,108.1,9.02,1.263,0.363,98.28059,-5.08,-3.868,59.7,0,109.3,13.48,-4.35,70.1
"2016-01-16 00:53:00",1288837,2.469,105.8,8.73,1.256,-0.755,98.26869,-5.11,-3.89,59.86,0,109.3,13.48,-4.38,67.8
"2016-01-16 00:53:30",1288838,2.472,103.5,6.721,0.914,-1.173,98.25962,-5.133,-3.922,59.71,0,109.3,13.48,-4.40,65.5
"2016-01-16 00:54:00",1288839,3.672,113.1,7.369,1.28,1.316,98.25309,-5.15,-3.785,59.55,0,109.4,13.48,-4.42,75.1
"2016-01-16 00:54:30",1288840,3.655,112.3,8.04,1.275,1.647,98.24828,-5.162,-3.804,59.14,0,109.3,13.48,-4.43,74.3
"2016-01-16 00:55:00",1288841,3.398,108.5,6.955,1.271,1.573,98.248,-5.163,-3.767,59.09,0,109.3,13.48,-4.43,70.5
"2016-01-16 00:55:30",1288842,2.376,100.1,8.85,1.145,0.102,98.24883,-5.161,-3.872,59.16,0,109.4,13.48,-4.43,62.1
"2016-01-16 00:56:00",1288843,2.226,102.9,4.15,1.081,-1.061,98.24995,-5.158,-3.972,59.35,0,109.3,13.48,-4.42,64.9
"2016-01-16 00:56:30",1288844,1.426,94.6,3.382,0.215,-2.224,98.24911,-5.16,-4.057,59.78,0,109.3,13.52,-4.43,56.6
"2016-01-16 00:57:00",1288845,2.369,88.7,6.917,1.317,0.419,98.24512,-5.17,-3.849,60.44,0,109.3,13.48,-4.44,50.7
"2016-01-16 00:57:30",1288846,3.115,89.1,11.71,1.339,1.586,98.23885,-5.186,-3.826,60.78,0,109.3,13.48,-4.45,51.1
"2016-01-16 00:58:00",1288847,2.701,85.2,8.92,1.367,1.007,98.23321,-5.201,-3.881,61.07,0,109.3,13.48,-4.47,47.2
"2016-01-16 00:58:30",1288848,2.634,85.2,6.496,1.334,1.03,98.23263,-5.202,-3.932,61.29,0,109.3,13.48,-4.47,47.2
"2016-01-16 00:59:00",1288849,1.546,73.66,5.48,1.024,-1.247,98.22726,-5.216,-3.997,61.5,0,109.3,13.48,-4.48,35.7
"2016-01-16 00:59:30",1288850,1.185,70.87,4.039,0.157,-2.39,98.22184,-5.23,-4.102,61.69,0,109.3,13.53,-4.50,32.9
"2016-01-16 01:00:00",1288851,2.27,85.8,7.753,1.242,0.055,98.22039,-5.233,-3.947,62.1,0,109.3,13.48,-4.50,47.8
"2016-01-16 01:00:30",1288852,2.944,96.2,7.268,1.287,2.066,98.22038,-5.233,-3.861,62.42,0,109.3,13.48,-4.50,58.2
"2016-01-16 01:01:00",1288853,2.497,87.1,10.08,1.364,1.589,98.21983,-5.235,-3.868,62.69,0,109.3,13.48,-4.50,49.1
"2016-01-16 01:01:30",1288854,2.746,88.9,17.84,1.329,0.535,98.21955,-5.235,-3.973,62.76,0,109.3,13.47,-4.50,50.9
"2016-01-16 01:02:00",1288855,2.196,103.3,7.337,1.135,-0.667,98.22121,-5.231,-4.027,62.35,0,109.3,13.47,-4.50,65.3
"2016-01-16 01:02:30",1288856,1.739,102.2,4.437,0.734,-1.766,98.22261,-5.228,-4.118,61.85,0,109.3,13.48,-4.49,64.2
"2016-01-16 01:03:00",1288857,2.725,98.1,9.55,1.301,0.275,98.21523,-5.246,-3.996,61.96,0,109.3,13.47,-4.51,60.1
"2016-01-16 01:03:30",1288858,2.972,91.6,8.92,1.388,1.415,98.20504,-5.272,-3.929,61.84,0,109.3,13.48,-4.54,53.6
"2016-01-16 01:04:00",1288859,3.373,93.6,7.792,1.355,1.807,98.20472,-5.273,-3.912,61.56,0,109.3,13.48,-4.54,55.6
"2016-01-16 01:04:30",1288860,3.05,98,6.912,1.299,0.674,98.19878,-5.288,-3.987,61.14,0,109.3,13.48,-4.55,60.0
"2016-01-16 01:05:00",1288861,3.684,101.2,10.99,1.339,0.428,98.19482,-5.298,-4.023,60.6,0,109.3,13.48,-4.57,63.2
"2016-01-16 01:05:30",1288862,2.746,99.5,10.13,1.299,-0.944,98.18775,-5.316,-4.153,60.09,0,109.3,13.48,-4.58,61.5
"2016-01-16 01:06:00",1288863,3.717,105.7,7.479,1.299,1.148,98.18832,-5.315,-3.965,59.81,0,109.3,13.48,-4.58,67.7
"2016-01-16 01:06:30",1288864,4.07,109.5,7.374,1.296,1.668,98.18943,-5.312,-3.955,59.59,0,109.3,13.48,-4.58,71.5
"2016-01-16 01:07:00",1288865,3.272,107.5,9.06,1.247,1.815,98.18914,-5.313,-4.034,59.52,0,109.4,13.48,-4.58,69.5
"2016-01-16 01:07:30",1288866,2.72,97.4,8.59,1.375,0.825,98.18887,-5.314,-4.013,59.62,0,109.3,13.48,-4.58,59.4
"2016-01-16 01:08:00",1288867,2.027,86,8.93,1.273,-0.612,98.19109,-5.308,-4.118,59.79,0,109.3,13.48,-4.57,48.0
"2016-01-16 01:08:30",1288868,1.236,90.1,5.694,0.183,-2.208,98.18914,-5.313,-4.208,59.99,0,109.3,13.53,-4.58,52.1
"2016-01-16 01:09:00",1288869,2.872,97.3,10.08,1.22,0.252,98.18604,-5.321,-4.059,60.41,0,109.3,13.48,-4.59,59.3
"2016-01-16 01:09:30",1288870,3.009,93.9,9.23,1.329,1.28,98.18432,-5.325,-4.017,60.57,0,109.3,13.49,-4.59,55.9
"2016-01-16 01:10:00",1288871,3.408,97.9,7.532,1.372,1.592,98.17411,-5.351,-4.014,60.75,0,109.3,13.48,-4.62,59.9
"2016-01-16 01:10:30",1288872,3.698,94.4,9.76,1.333,1.378,98.16675,-5.37,-4.017,60.81,0,109.3,13.49,-4.64,56.4
"2016-01-16 01:11:00",1288873,3.516,76.31,10.38,1.175,-0.134,98.16391,-5.377,-4.059,60.87,0,109.3,13.48,-4.64,38.3
"2016-01-16 01:11:30",1288874,3.708,104.7,8.2,1.49,0.004,98.16164,-5.383,-4.111,60.98,0,109.3,13.48,-4.65,66.7
"2016-01-16 01:12:00",1288875,3.647,98.8,7.652,1.362,0.184,98.15965,-5.388,-4.099,60.96,0,109.3,13.48,-4.65,60.8
"2016-01-16 01:12:30",1288876,4.521,96.9,7.321,1.295,1.573,98.15597,-5.397,-4.008,60.88,0,109.3,13.48,-4.66,58.9
"2016-01-16 01:13:00",1288877,3.88,95.2,9.5,1.341,0.934,98.15456,-5.401,-4.068,60.72,0,109.3,13.49,-4.67,57.2
"2016-01-16 01:13:30",1288878,3.178,76.11,9.22,1.307,0.01,98.15429,-5.402,-4.126,60.75,0,109.3,13.48,-4.67,38.1
"2016-01-16 01:14:00",1288879,1.971,108.8,20.03,1.195,-1.001,98.15512,-5.399,-4.152,60.8,0,109.3,13.48,-4.67,70.8
"2016-01-16 01:14:30",1288880,3.03,86.9,13.33,1.45,-0.781,98.15568,-5.398,-4.185,60.88,0,109.3,13.49,-4.67,48.9
"2016-01-16 01:15:00",1288881,2.99,85.4,16.09,1.438,0.351,98.15484,-5.4,-4.126,61.11,0,109.3,13.49,-4.67,47.4
"2016-01-16 01:15:30",1288882,2.527,70.95,8.97,1.368,-0.23,98.15568,-5.398,-4.08,61.4,0,109.3,13.49,-4.67,32.9
"2016-01-16 01:16:00",1288883,2.431,93.2,14.12,1.34,0.703,98.15596,-5.397,-4.175,61.7,0,109.3,13.49,-4.66,55.2
"2016-01-16 01:16:30",1288884,2.297,87.4,9.22,1.335,0.438,98.15453,-5.401,-4.139,61.98,0,109.3,13.49,-4.67,49.4
"2016-01-16 01:17:00",1288885,1.54,117.4,29.93,0.992,-1.918,98.14826,-5.417,-4.273,62.03,0,109.3,13.49,-4.68,79.4
"2016-01-16 01:17:30",1288886,2.161,126.4,19,1.673,-0.357,98.1378,-5.444,-4.213,62.46,0,109.3,13.48,-4.71,88.4
"2016-01-16 01:18:00",1288887,2.511,165.2,13.01,1.323,-0.067,98.13298,-5.456,-4.131,62.82,0,109.3,13.48,-4.72,127.2
"2016-01-16 01:18:30",1288888,2.243,155.1,10.88,1.238,0.1,98.12252,-5.482,-4.164,63.12,0,109.3,13.48,-4.75,117.1
"2016-01-16 01:19:00",1288889,3.315,118.1,13.47,1.237,0.227,98.12193,-5.484,-4.182,63.68,0,109.3,13.48,-4.75,80.1
"2016-01-16 01:19:30",1288890,3.368,133.1,10.39,1.376,0.107,98.12166,-5.485,-4.225,63.93,0,109.3,13.48,-4.75,95.1
"2016-01-16 01:20:00",1288891,2.99,140.5,8.75,1.227,-0.325,98.12193,-5.484,-4.289,63.92,0,109.3,13.48,-4.75,102.5
"2016-01-16 01:20:30",1288892,3.191,146,9.54,1.337,-0.291,98.12166,-5.485,-4.201,63.95,0,109.3,13.48,-4.75,108.0
"2016-01-16 01:21:00",1288893,3.392,152.6,10.01,1.365,0.191,98.12192,-5.484,-4.265,64.09,0,109.3,13.48,-4.75,114.6
"2016-01-16 01:21:30",1288894,3.679,144.9,9.56,1.408,0.169,98.1151,-5.501,-4.204,64.45,0,109.3,13.48,-4.77,106.9
"2016-01-16 01:22:00",1288895,4.215,148.4,8.52,1.227,0.181,98.10688,-5.522,-4.218,64.79,0,109.3,13.48,-4.79,110.4
"2016-01-16 01:22:30",1288896,4.972,152.9,7.369,1.279,1.065,98.10767,-5.52,-4.187,64.75,0,109.3,13.49,-4.79,114.9
"2016-01-16 01:23:00",1288897,3.963,157.2,6.415,1.357,0.059,98.10539,-5.526,-4.285,64.07,0,109.3,13.49,-4.79,119.2
"2016-01-16 01:23:30",1288898,3.917,165,9.87,1.372,0.948,98.09973,-5.54,-4.195,63.89,0,109.3,13.49,-4.81,127.0
"2016-01-16 01:24:00",1288899,4.143,152.5,9.75,1.323,0.734,98.09322,-5.557,-4.267,63.96,0,109.3,13.49,-4.82,114.5
"2016-01-16 01:24:30",1288900,3.598,152.8,8.56,1.483,0.115,98.09402,-5.555,-4.284,64.16,0,109.3,13.49,-4.82,114.8
"2016-01-16 01:25:00",1288901,4.119,156.4,8.24,1.333,0.516,98.09264,-5.559,-4.264,64.44,0,109.3,13.49,-4.83,118.4
"2016-01-16 01:25:30",1288902,3.602,152.7,9.47,1.278,0.382,98.08411,-5.58,-4.285,64.75,0,109.3,13.49,-4.85,114.7
"2016-01-16 01:26:00",1288903,3.09,124.9,7.103,1.368,-0.614,98.07589,-5.601,-4.28,65.25,0,109.3,13.49,-4.87,86.9
"2016-01-16 01:26:30",1288904,4.188,121.2,8.95,1.209,0.131,98.07304,-5.608,-4.317,65.7,0,109.3,13.49,-4.88,83.2
"2016-01-16 01:27:00",1288905,3.825,123.7,11.8,1.442,-0.403,98.06285,-5.634,-4.292,66.12,0,109.3,13.49,-4.90,85.7
"2016-01-16 01:27:30",1288906,4.933,110.1,7.435,1.287,0.343,98.06001,-5.642,-4.306,66.47,0,109.3,13.49,-4.91,72.1
"2016-01-16 01:28:00",1288907,5.062,103.8,9.03,1.448,0.844,98.05715,-5.649,-4.28,66.87,0,109.3,13.49,-4.92,65.8
"2016-01-16 01:28:30",1288908,5.539,96,6.947,1.252,1.232,98.04298,-5.685,-4.283,67.21,0,109.3,13.49,-4.95,58.0
"2016-01-16 01:29:00",1288909,5.298,100.4,7.33,1.205,1.05,98.0393,-5.694,-4.282,67.55,0,109.3,13.49,-4.96,62.4
"2016-01-16 01:29:30",1288910,4.872,100.1,7.979,1.285,0.936,98.02853,-5.722,-4.346,67.76,0,109.3,13.49,-4.99,62.1
"2016-01-16 01:30:00",1288911,4.58,97.5,8.53,1.344,0.571,98.02257,-5.737,-4.439,67.84,0,109.3,13.49,-5.01,59.5
"2016-01-16 01:30:30",1288912,4.297,86.9,9.55,1.229,-1.138,98.00755,-5.775,-4.49,67.95,0,109.3,13.49,-5.04,48.9
"2016-01-16 01:31:00",1288913,5.181,83.2,8.44,1.385,-0.371,97.99422,-5.809,-4.451,68.2,0,109.3,13.49,-5.08,45.2
"2016-01-16 01:31:30",1288914,5.126,97,7.817,1.258,0.788,97.99252,-5.813,-4.436,68.45,0,109.2,13.49,-5.08,59.0
"2016-01-16 01:32:00",1288915,5.244,86,6.617,1.243,0.743,97.98401,-5.835,-4.436,68.58,0,109.3,13.49,-5.10,48.0
"2016-01-16 01:32:30",1288916,5.274,91.2,7.894,1.263,1.209,97.96841,-5.875,-4.447,68.71,0,109.3,13.49,-5.14,53.2
"2016-01-16 01:33:00",1288917,4.956,91.1,8.3,1.296,0.78,97.95905,-5.899,-4.477,68.82,0,109.3,13.49,-5.17,53.1
"2016-01-16 01:33:30",1288918,5.544,94.2,7.5,1.269,0.971,97.95395,-5.912,-4.488,68.9,0,109.3,13.49,-5.18,56.2
"2016-01-16 01:34:00",1288919,5.595,91.9,7.11,1.35,0.648,97.93863,-5.951,-4.54,68.98,0,109.3,13.48,-5.22,53.9
"2016-01-16 01:34:30",1288920,5.279,91.7,7.364,1.268,-0.685,97.92531,-5.984,-4.625,69.06,0,109.3,13.48,-5.25,53.7
"2016-01-16 01:35:00",1288921,5.195,96,6.305,1.266,-1.091,97.92275,-5.991,-4.612,69.31,0,109.3,13.48,-5.26,58.0
"2016-01-16 01:35:30",1288922,5.635,103.6,6.57,1.264,0.613,97.90687,-6.031,-4.639,69.54,0,109.3,13.48,-5.30,65.6
"2016-01-16 01:36:00",1288923,5.413,107.1,6.496,1.314,1.225,97.8969,-6.057,-4.594,69.67,0,109.3,13.49,-5.33,69.1
"2016-01-16 01:36:30",1288924,5.577,104.9,6.278,1.167,1.4,97.8957,-6.06,-4.593,69.7,0,109.3,13.48,-5.33,66.9
"2016-01-16 01:37:00",1288925,5.297,108.1,5.958,1.135,1.174,97.88258,-6.093,-4.628,69.73,0,109.3,13.48,-5.36,70.1
"2016-01-16 01:37:30",1288926,5.35,99.4,7.409,1.173,0.813,97.87089,-6.123,-4.683,69.87,0,109.3,13.48,-5.39,61.4
"2016-01-16 01:38:00",1288927,5.657,92.8,7.223,1.214,1.097,97.87195,-6.12,-4.705,70.1,0,109.3,13.48,-5.39,54.8
"2016-01-16 01:38:30",1288928,5.532,84.1,7.738,1.231,1.017,97.86909,-6.128,-4.724,70.35,0,109.3,13.49,-5.40,46.1
"2016-01-16 01:39:00",1288929,5.436,80.2,7.283,1.281,0.272,97.85491,-6.164,-4.75,70.48,0,109.3,13.49,-5.43,42.2
"2016-01-16 01:39:30",1288930,3.963,77.07,7.835,1.556,-0.79,97.85063,-6.174,-4.905,70.52,0,109.3,13.49,-5.44,39.1
"2016-01-16 01:40:00",1288931,4.141,75.78,6.687,1.388,-0.739,97.8396,-6.203,-4.913,70.66,0,109.3,13.49,-5.47,37.8
"2016-01-16 01:40:30",1288932,4.585,88.3,11.51,1.37,-0.221,97.83958,-6.203,-4.882,70.8,0,109.3,13.49,-5.47,50.3
"2016-01-16 01:41:00",1288933,4.687,85,6.808,1.38,-0.736,97.82877,-6.23,-4.917,70.85,0,109.3,13.5,-5.50,47.0
"2016-01-16 01:41:30",1288934,5.419,93.4,6.276,1.231,0.846,97.8197,-6.253,-4.846,70.95,0,109.3,13.5,-5.52,55.4
"2016-01-16 01:42:00",1288935,5.491,94.9,7.662,1.325,0.689,97.81398,-6.268,-4.862,71.03,0,109.3,13.5,-5.54,56.9
"2016-01-16 01:42:30",1288936,5.721,105.1,6.418,1.193,1.347,97.80999,-6.278,-4.844,71.11,0,109.3,13.5,-5.55,67.1
"2016-01-16 01:43:00",1288937,5.728,93.4,6.823,1.148,1.031,97.8111,-6.275,-4.866,71.19,0,109.3,13.5,-5.55,55.4
"2016-01-16 01:43:30",1288938,5.465,90.1,6.94,1.156,0.94,97.80856,-6.282,-4.917,71.24,0,109.3,13.5,-5.55,52.1
"2016-01-16 01:44:00",1288939,5.471,93.3,7.474,1.204,1.194,97.80029,-6.303,-4.911,71.25,0,109.3,13.5,-5.57,55.3
"2016-01-16 01:44:30",1288940,5.186,89.4,6.687,1.347,1.34,97.79686,-6.311,-4.92,71.28,0,109.3,13.5,-5.58,51.4
"2016-01-16 01:45:00",1288941,5.017,90.1,6.867,1.29,0.816,97.79603,-6.313,-4.932,71.3,0,109.3,13.5,-5.58,52.1
"2016-01-16 01:45:30",1288942,4.198,89.5,6.534,1.276,-0.33,97.79574,-6.314,-5.036,71.27,0,109.3,13.49,-5.58,51.5
"2016-01-16 01:46:00",1288943,2.941,86.7,3.118,0.198,-2.53,97.79034,-6.328,-5.207,71.17,0,109.3,13.54,-5.60,48.7